OPS 4682 DEB, 38436

Orbit data source: Space-Track

OPS 4682 DEB, 38436 is space debris in LEO originally from a launch on Sat, 03 Apr 1965 UTC launched from the Air Force Western Test Range (AFWTR). Debris objects in space refer to the collection of defunct objects orbiting the Earth. Examples of debris include non-operational satellites, rocket bodies, and fragments generated from explosions, collisions, or faulty payload assembly.

Loading next visibility...
Identifier
38436, 1965-027ER
Orbit
LEO
Country
Flag of USUS
Related business
Manufacturer
Unknown
Mission
Spacecraft
Bus & Motor
Unknown
Mass
Unknown
Launch date (UTC)
1965-04-03 (61 years ago)
Launch vehicle
Unknown
Launch site
Air Force Western Test Range (AFWTR)
Object type
Payload
Rocket body
Debris
Shape & HBR
Unknown shape, 0.1 m
Radar Cross Section
Medium (>0.1 m² and <1 m²)

Expand to show TLE details & history
Last TLE update: 4 days ago

TLE from 4 days ago
0 OPS 4682 DEB
1 38436U 65027ER  26147.54809523 -.00000513  00000-0 -17279-2 0  9999
2 38436  90.2405   2.4236 0025120 352.6502   7.4248 12.99946229612744
Epoch: 2026-05-27T13:09Z
TLE epoch observation values (Epoch: 2026-05-27T13:09:15.427Z)
Latitude
-0.00008°
Longitude
-79.99628°
Altitude
1,246.146 km
Speed
7.241 km/s
True Right ascension
00h 09m 41s
True Declination
0° 00' 00"
Sunlit
Object was in daylight at epoch
Visualization orbit readout
Latitude
Unknown
Longitude
Unknown
Altitude
Unknown
Speed
Unknown
Apparent Right ascension
Unknown
Apparent Declination
Unknown
Sunlit
N/A
Visualization observer readout
Local Sidereal Time
18:34:21
Azimuth
Unknown
Elevation
Unknown
Doppler factor
Unknown
Orbital elements
Apogee altitude
1,278.61 km
Perigee altitude
1,240.239 km
Semi-major axis
7,637.561 km
Eccentricity
0.00251
Inclination
90.2405°
RAAN
2.4236°
Arg. of periapsis
352.6502°
True anomaly
7.46211°
Mean anomaly
7.4248°
Eccentric anomaly
7.44345°
Mean motion
3.2517 °/min
Orbital period
110.71 mins
BSTAR
-0.0017279
Loading maneuver chart data...
Computing Atmospheric mass density...
Loading historical data...
Loading historical data...
Loading historical data...
Loading historical data...
Loading historical data...
Loading historical data...
Loading historical data...

Documentation

Showing up to 5 results
|